Change the Weather History Date:

Sunday, August 31, 2014

  Actual Average Record
Temperature  
Mean Temperature 70 °F -  
Max Temperature 78 °F 75 °F 92 °F (1961)
Min Temperature 60 °F 51 °F 33 °F (1967)
Cooling Degree Days 4    
Growing Degree Days 20 (Base 50)    
Moisture  
Dew Point 62 °F    
Average Humidity 89    
Maximum Humidity 100    
Minimum Humidity 64    
Precipitation  
Precipitation 0.00 in - - ()
Sea Level Pressure  
Sea Level Pressure 29.72 in    
Wind  
Wind Speed 10 mph (SSE)    
Max Wind Speed 21 mph    
Max Gust Speed 29 mph    
Visibility 9 miles    
Events      
Averages and records for this station are not official NWS values.
T = Trace of Precipitation, MM = Missing Value Source: NWS Daily Summary

Daily Weather History Graph

Daily Weather History Graph

Search for Another Location

Airport or City:

Trip Planner

Search our weather history database for the weather conditions in past years. The results will help you decide how hot, cold, wet, or windy it might be!

Date:

Astronomy

Aug. 31, 2014 Rise Set
Actual Time 6:38 AM CDT 8:01 PM CDT
Civil Twilight 6:06 AM CDT 8:33 PM CDT
Nautical Twilight 5:28 AM CDT 9:11 PM CDT
Astronomical Twilight 4:47 AM CDT 9:51 PM CDT
Moon 12:49 PM CDT (8/31) 10:53 PM CDT (8/31)
Length of Visible Light 14h 26m
Length of Day
13h 23m
Waxing Crescent, 32% of the Moon is Illuminated
Aug 31
Waxing Crescent
Sep 2
First Quarter
Sep 8
Full
Sep 15
Last Quarter
Sep 24
New

Hourly Weather History & Observations

Time (CDT) Temp. Dew Point Humidity Pressure Visibility Wind Dir Wind Speed Gust Speed Precip Events Conditions
12:27 AM 62.1 °F 61.0 °F 96% 29.84 in 10.0 mi SE 3.5 mph - N/A   Overcast
12:53 AM 62.1 °F 61.0 °F 96% 29.87 in 8.0 mi SSW 4.6 mph - N/A   Overcast
1:08 AM 62.1 °F 61.0 °F 96% 29.85 in 8.0 mi SE 6.9 mph - N/A   Overcast
1:15 AM 62.1 °F 61.0 °F 96% 29.85 in 8.0 mi SSE 6.9 mph - N/A   Overcast
1:32 AM 62.1 °F 61.0 °F 96% 29.84 in 8.0 mi SE 6.9 mph - N/A   Overcast
1:49 AM 62.6 °F 60.8 °F 94% 29.84 in 9.0 mi SE 8.1 mph - N/A   Overcast
1:53 AM 62.1 °F 61.0 °F 96% 29.84 in 9.0 mi SSE 9.2 mph - N/A   Overcast
2:00 AM 62.1 °F 61.0 °F 96% 29.84 in 9.0 mi SSE 9.2 mph - N/A   Overcast
2:29 AM 62.1 °F 62.1 °F 100% 29.82 in 4.0 mi South 16.1 mph - N/A   Overcast
2:53 AM 62.1 °F 62.1 °F 100% 29.81 in 4.0 mi SSE 11.5 mph - N/A   Overcast
3:21 AM 62.1 °F 62.1 °F 100% 29.80 in 4.0 mi SSE 11.5 mph - N/A   Overcast
3:53 AM 63.0 °F 61.0 °F 93% 29.78 in 10.0 mi SE 11.5 mph - N/A   Overcast
4:22 AM 63.0 °F 61.0 °F 93% 29.76 in 10.0 mi SE 12.7 mph - N/A   Overcast
4:50 AM 62.6 °F 62.6 °F 100% 29.79 in 10.0 mi South 11.5 mph - N/A   Overcast
4:53 AM 63.0 °F 62.1 °F 97% 29.79 in 10.0 mi SSE 11.5 mph - N/A   Overcast
5:19 AM 62.6 °F 62.6 °F 100% 29.77 in 10.0 mi SSE 11.5 mph - N/A   Overcast
5:53 AM 64.0 °F 62.1 °F 93% 29.77 in 10.0 mi SSE 12.7 mph - N/A   Overcast
6:28 AM 64.0 °F 62.1 °F 93% 29.77 in 10.0 mi ESE 6.9 mph - N/A   Overcast
6:53 AM 63.0 °F 61.0 °F 93% 29.74 in 9.0 mi ESE 11.5 mph - N/A   Overcast
7:53 AM 63.0 °F 60.1 °F 90% 29.72 in 10.0 mi SE 13.8 mph - N/A   Overcast
8:53 AM 63.0 °F 60.1 °F 90% 29.68 in 10.0 mi SE 16.1 mph 25.3 mph N/A   Overcast
9:33 AM 64.0 °F 60.1 °F 87% 29.66 in 10.0 mi SE 18.4 mph 27.6 mph N/A   Overcast
9:53 AM 64.9 °F 61.0 °F 87% 29.67 in 10.0 mi SE 19.6 mph 27.6 mph N/A   Overcast
10:53 AM 64.9 °F 61.0 °F 87% 29.64 in 10.0 mi SE 19.6 mph - N/A   Overcast
11:53 AM 66.9 °F 62.1 °F 84% 29.63 in 10.0 mi SSE 20.7 mph 28.8 mph N/A   Overcast
12:24 PM 70.0 °F 63.0 °F 78% 29.62 in 10.0 mi SSE 19.6 mph - N/A   Overcast
12:53 PM 71.1 °F 64.0 °F 78% 29.60 in 10.0 mi South 19.6 mph - N/A   Overcast
1:53 PM 73.9 °F 64.9 °F 73% 29.60 in 10.0 mi South 16.1 mph - N/A   Overcast
2:05 PM 75.0 °F 66.0 °F 73% 29.61 in 10.0 mi South 15.0 mph 23.0 mph N/A   Overcast
2:53 PM 75.0 °F 64.0 °F 69% 29.60 in 10.0 mi SW 13.8 mph - N/A   Overcast
3:53 PM 77.0 °F 64.0 °F 64% 29.61 in 10.0 mi WSW 16.1 mph - N/A   Mostly Cloudy
4:53 PM 73.0 °F 64.0 °F 73% 29.63 in 10.0 mi West 20.7 mph 28.8 mph N/A   Mostly Cloudy
5:44 PM 70.0 °F 64.0 °F 81% 29.64 in 10.0 mi WNW 15.0 mph - N/A   Mostly Cloudy
5:53 PM 69.1 °F 63.0 °F 81% 29.63 in 10.0 mi WNW 15.0 mph - N/A   Mostly Cloudy
6:53 PM 69.1 °F 63.0 °F 81% 29.63 in 10.0 mi West 10.4 mph - N/A   Clear
7:53 PM 64.9 °F 62.1 °F 90% 29.62 in 10.0 mi WSW 5.8 mph - N/A   Clear
8:53 PM 64.4 °F 62.6 °F 94% 29.60 in 10.0 mi Calm Calm - N/A   Partly Cloudy
9:53 PM 64.0 °F 62.1 °F 93% 29.64 in 10.0 mi SW 3.5 mph - N/A   Mostly Cloudy
10:53 PM 63.0 °F 62.1 °F 97% 29.63 in 10.0 mi Calm Calm - N/A   Clear
11:53 PM 60.1 °F 59.0 °F 96% 29.65 in 9.0 mi Calm Calm - N/A   Clear